Wind_Speed
4 4 3 5 7 7 9 9 8 7 8 9 7 5 7 6 7 8 3 2 10 10 9 8 4 6 10 12 13 12 12 11 11 11 10 11 10 9 10 10 11 11 12 14 20 23 25 27 28 28 28 28 28 29 29 29 29 29 29 29 29 29 29 28 27 26 26 27 26 25 24 24 22 22 22 20 18 16 14 16 16 12 11 11 8 7
4 6 7 8 10 10 9 9 7 7 7 6 6 5 5 5 6 6 2 2 6 6 5 4 5 6 8 10 11 12 13 14 15 14 13 13 11 10 11 12 12 10 9 10 14 19 24 26 27 28 28 28 28 29 30 30 31 31 30 30 30 29 29 30 29 28 28 28 27 25 24 23 22 21 20 18 17 15 15 16 14 12 11 8 6 8
4 6 9 9 8 7 5 6 8 7 6 5 4 5 4 4 4 4 4 5 6 5 4 3 4 3 3 7 10 12 15 14 14 14 13 13 12 11 12 12 12 10 8 8 10 15 21 24 27 27 27 29 30 31 32 32 32 32 31 32 31 30 30 30 30 30 29 28 26 25 23 21 20 19 19 18 16 15 15 15 14 13 11 9 9 10
5 6 8 7 7 8 4 4 8 6 4 4 4 5 3 3 3 3 4 7 6 2 1 5 2 3 1 4 7 11 12 9 9 10 9 10 12 13 14 13 12 12 11 10 10 12 17 21 24 26 28 30 30 30 31 32 32 32 33 33 33 32 31 31 31 31 30 27 25 24 21 19 19 19 18 17 17 16 15 15 14 14 12 11 12 12
6 6 5 9 8 9 6 4 7 5 2 3 5 6 4 4 5 3 4 7 4 2 2 6 4 5 4 7 8 9 9 8 7 9 9 10 12 12 12 11 11 13 13 12 12 11 14 18 22 26 28 29 30 30 32 33 34 34 34 35 35 34 33 32 32 31 30 27 25 23 19 17 17 17 16 16 17 16 15 15 15 14 13 13 14 13
7 5 6 10 7 8 7 5 6 7 4 3 5 8 8 8 6 4 8 9 4 2 3 5 2 6 4 8 10 7 8 11 8 9 12 11 11 11 10 11 12 12 12 12 13 12 13 17 21 24 27 29 30 32 34 35 36 36 36 36 35 35 34 33 32 31 30 29 27 24 21 19 18 18 17 18 18 17 16 16 15 14 14 15 16 14
5 4 6 8 7 8 7 5 6 8 6 2 6 10 10 8 8 8 10 8 4 4 5 6 5 5 4 6 10 8 9 13 10 11 13 12 12 12 11 12 12 12 12 12 12 12 13 17 19 22 26 29 31 34 35 34 35 36 35 35 36 35 35 34 33 31 30 30 28 27 25 23 22 21 20 19 18 16 16 16 16 16 16 16 17 15
5 7 6 6 6 7 6 5 6 8 8 3 6 9 10 9 9 11 11 7 5 2 1 4 4 2 5 6 8 10 9 11 12 13 13 13 14 14 14 14 13 14 14 12 13 13 14 18 21 24 27 31 32 33 33 33 34 35 35 35 36 36 35 34 33 32 31 30 29 28 26 25 24 23 21 19 18 16 15 15 17 17 17 17 16 15
4 9 9 9 6 4 5 6 8 10 6 6 6 8 9 9 9 10 10 6 3 4 1 4 3 2 6 6 2 8 10 11 15 18 17 16 16 16 16 16 15 15 15 14 14 14 15 19 24 26 28 30 31 32 33 34 35 35 36 35 35 35 35 34 33 32 32 31 30 29 27 25 24 23 20 19 18 17 15 15 17 17 17 17 15 13
3 7 9 9 6 6 6 5 10 12 6 5 6 6 5 5 5 6 7 4 3 3 5 7 6 4 6 5 2 6 9 13 16 17 18 17 16 16 16 16 16 14 13 13 14 14 16 22 26 27 27 29 30 31 33 34 35 35 35 34 34 35 35 34 33 32 32 31 30 29 27 25 24 22 20 19 18 17 17 17 18 17 16 16 15 14
4 2 5 7 6 7 7 5 8 13 9 5 7 6 6 5 5 3 1 3 4 1 6 10 12 9 6 5 4 6 10 16 16 14 15 15 15 17 16 16 16 14 12 12 12 13 17 23 25 25 27 29 30 30 30 32 33 34 34 34 34 35 35 34 33 33 32 31 30 29 27 26 24 23 22 20 19 19 19 20 19 17 17 16 16 15
5 3 2 3 4 6 6 4 5 7 6 5 5 5 4 2 3 4 4 4 3 4 7 9 10 8 7 6 6 11 15 17 16 15 16 17 18 19 17 16 16 15 13 12 12 12 13 16 19 23 25 27 28 28 29 32 32 33 34 34 34 35 34 34 33 33 32 31 31 30 28 26 25 24 23 23 22 22 22 21 19 18 18 18 17 16
4 5 5 5 3 6 7 4 2 1 1 5 4 5 4 2 2 1 1 1 3 6 6 5 8 5 7 8 8 12 14 14 15 16 18 19 20 19 17 16 14 13 13 13 12 12 12 12 15 20 24 25 27 29 31 32 32 33 33 34 35 35 35 34 34 33 33 32 32 31 29 28 27 26 25 24 25 24 23 22 22 21 20 20 19 17
3 5 5 5 4 3 8 6 3 2 3 6 6 5 5 3 2 3 3 1 2 6 5 3 8 4 5 7 9 13 16 17 16 18 18 15 14 15 15 15 13 13 14 13 12 13 13 13 15 20 24 25 27 29 31 32 32 33 33 34 35 35 35 34 34 33 33 32 32 32 30 29 28 27 26 26 26 25 24 24 23 22 21 21 20 18
4 5 6 7 4 4 7 7 7 6 5 6 6 6 5 5 5 4 4 3 4 3 2 2 5 5 4 4 8 12 15 15 14 14 12 7 5 9 10 11 12 12 13 12 13 14 14 15 18 21 24 25 28 30 31 32 32 32 33 35 36 35 35 35 34 34 33 33 32 32 31 30 30 28 27 26 25 25 24 23 23 22 21 21 20 18
5 6 7 6 5 6 7 6 7 8 4 5 3 5 5 6 6 3 3 6 5 2 0 2 3 5 5 6 7 4 6 9 11 10 9 6 6 9 9 11 12 12 13 12 13 15 15 16 19 21 23 26 28 29 30 31 33 34 35 35 37 37 36 34 35 34 33 33 33 32 32 31 31 29 27 26 25 24 23 22 22 21 20 19 18 17
4 6 6 4 4 6 8 7 7 7 5 3 3 4 5 6 7 3 2 2 3 2 3 2 3 3 2 7 8 4 6 9 8 8 10 9 7 10 10 12 13 13 14 14 14 15 15 15 19 22 24 26 28 29 32 34 36 38 37 36 37 36 35 35 36 35 34 34 34 34 33 33 32 30 28 26 25 23 22 21 21 20 19 18 17 17
4 5 7 6 8 8 7 7 6 7 7 6 4 6 3 3 3 3 2 1 3 2 4 2 5 4 2 3 7 4 8 12 9 9 10 7 8 10 12 12 14 15 15 15 15 14 13 14 18 23 26 29 32 33 35 37 38 37 36 36 36 36 36 37 36 35 34 35 35 35 34 34 32 30 28 26 25 23 22 22 22 20 18 17 17 17
5 4 7 6 10 6 4 6 6 6 4 4 4 6 5 3 2 1 3 2 1 3 3 2 3 3 5 5 5 6 11 13 12 10 8 9 11 12 12 13 15 14 13 13 13 12 12 13 18 23 26 29 32 34 35 36 34 34 35 36 36 37 38 36 32 33 34 35 35 35 35 34 32 30 27 26 25 24 23 22 21 18 17 17 17 17
4 4 6 4 6 3 3 6 8 8 3 2 3 4 2 3 5 3 3 4 4 4 2 3 2 3 6 7 7 11 13 13 13 10 8 11 14 14 13 12 12 13 12 12 12 13 13 14 19 26 28 30 34 35 34 32 32 34 35 35 35 36 35 32 32 34 35 35 35 35 35 33 31 29 27 26 26 24 23 22 19 17 17 17 17 16
3 4 5 4 2 2 2 6 9 9 5 3 4 5 2 1 3 2 1 3 4 4 3 3 3 5 7 6 9 13 13 13 14 11 11 12 14 14 13 11 11 12 12 12 13 14 14 15 20 26 29 30 31 30 28 29 31 34 33 33 35 35 33 33 34 35 36 36 36 35 33 32 31 29 28 28 26 24 21 19 17 16 17 17 17 16
3 4 5 4 2 3 6 7 8 9 9 8 7 6 6 4 3 2 4 1 2 3 4 5 4 7 7 5 9 12 11 11 13 12 12 12 13 13 10 11 13 13 13 14 14 14 14 13 17 23 26 26 26 26 28 31 32 33 33 36 37 36 35 35 36 36 36 35 34 34 34 35 33 31 30 29 27 24 21 18 16 16 17 17 16 15
5 4 5 6 5 6 9 7 5 7 7 7 6 6 8 6 6 6 6 3 1 1 2 3 3 7 7 6 8 9 7 8 9 10 10 10 9 9 9 11 12 12 13 15 14 13 12 12 16 21 23 25 27 29 31 32 32 34 36 37 36 35 36 37 36 36 33 31 33 35 37 36 34 33 32 30 28 25 21 17 15 16 17 17 16 16
4 3 5 5 4 4 7 6 2 3 4 3 5 5 7 7 7 7 5 5 4 3 3 2 3 6 6 3 4 5 5 6 7 9 11 10 6 6 9 10 10 12 13 13 12 11 9 10 14 16 18 22 25 27 29 30 32 34 34 34 33 35 37 36 33 31 30 32 35 36 36 36 34 34 35 33 30 27 24 19 16 16 18 17 16 17
4 3 4 4 3 4 5 5 5 3 4 4 4 4 6 7 6 3 2 3 4 5 6 5 4 6 6 3 2 4 5 6 8 9 9 8 6 7 8 9 10 11 11 11 10 9 9 11 12 12 15 20 24 26 28 30 31 32 32 32 33 35 35 33 31 29 30 33 34 34 36 35 34 36 37 35 32 29 25 22 20 18 18 18 18 19
6 4 6 7 6 7 7 6 7 5 3 3 3 6 8 8 9 5 3 4 6 5 5 6 5 6 7 5 4 5 6 7 8 8 8 8 7 7 8 8 9 10 10 11 11 10 10 11 11 12 15 20 23 25 27 29 30 31 31 32 34 33 31 29 29 28 30 32 33 34 36 35 36 37 38 37 34 30 27 25 21 18 19 19 19 21
3 4 7 10 11 10 10 9 7 5 5 5 6 8 8 9 11 8 5 5 6 4 4 6 7 6 7 7 7 8 7 7 8 7 8 9 9 8 9 9 9 8 9 10 9 9 9 10 11 12 15 19 23 25 27 29 30 30 30 32 33 30 27 27 28 29 31 33 35 37 38 39 40 41 40 39 36 33 31 28 23 21 22 22 20 22
3 3 7 11 14 15 14 13 9 7 7 8 9 9 10 9 11 10 7 7 7 6 6 9 6 8 9 9 10 10 8 7 8 9 11 11 10 9 8 8 8 8 7 7 8 9 10 11 11 11 13 18 21 23 25 27 27 28 29 31 29 26 26 28 29 31 33 36 38 39 40 41 43 43 41 39 37 35 34 30 26 24 24 22 22 25
4 5 6 8 12 15 16 13 10 8 7 7 9 10 10 10 11 12 12 11 9 8 10 8 9 11 10 10 12 13 11 11 12 11 10 8 7 7 7 8 9 10 9 9 9 10 10 10 10 10 11 15 18 20 22 23 25 26 28 28 26 25 27 29 31 33 35 37 39 39 39 40 41 40 38 37 36 35 32 27 24 22 22 24 27 28
3 5 6 9 11 14 15 12 9 9 8 7 8 9 9 10 12 14 13 12 12 12 11 9 12 13 10 11 13 11 8 8 6 5 6 7 8 8 9 10 11 11 10 10 10 9 9 9 9 9 8 10 15 18 20 22 23 25 26 24 22 24 27 29 31 34 36 37 37 36 36 39 40 39 37 36 32 28 24 20 19 20 25 30 31 30
1 4 3 6 7 10 12 11 9 10 11 11 12 11 9 8 9 10 10 7 7 9 7 5 9 11 9 8 9 4 3 5 5 6 8 9 9 10 11 12 12 10 9 9 9 8 8 7 7 7 8 10 14 17 19 20 21 22 21 20 20 24 27 30 32 34 35 36 36 35 37 41 41 40 39 37 29 22 21 23 25 26 32 35 33 31
1 2 2 4 3 7 7 10 11 9 9 11 13 13 11 9 7 7 7 7 7 8 4 4 6 9 9 6 5 2 5 7 8 9 8 7 8 10 12 12 10 9 9 8 8 8 8 9 9 8 8 10 13 15 17 17 17 17 20 21 22 25 27 31 33 34 36 36 36 37 40 42 41 39 38 37 31 27 27 31 33 33 35 37 35 33
2 1 2 3 3 7 7 9 9 6 4 7 10 11 13 10 8 6 5 6 8 8 7 6 8 9 6 6 6 5 6 9 10 9 8 8 10 10 11 10 9 9 9 8 8 9 9 8 8 8 9 11 14 17 19 20 21 23 25 25 25 26 29 32 34 35 36 36 37 38 40 41 39 36 36 36 35 33 33 34 35 35 36 37 36 34
1 2 1 3 3 7 7 4 4 4 5 7 6 8 11 12 13 11 7 7 9 7 4 6 7 4 2 7 10 11 9 8 8 7 6 7 9 9 9 9 9 8 7 7 7 8 7 7 7 10 14 16 18 20 21 24 26 27 26 25 25 27 30 32 33 34 35 35 36 37 37 38 36 33 32 34 34 34 34 35 36 36 36 35 33 32
3 1 2 2 2 4 2 4 4 6 8 7 5 5 8 12 15 11 4 3 6 6 5 7 7 6 6 7 8 8 5 1 2 3 2 5 8 9 9 9 8 8 7 7 7 8 8 8 9 11 16 19 19 19 19 22 24 23 21 22 25 27 29 31 32 32 33 33 33 34 34 34 32 29 29 30 31 32 33 34 35 34 32 31 30 30
5 3 2 1 2 2 0 4 6 7 5 4 4 1 2 4 8 9 4 1 4 5 6 7 7 7 6 5 3 4 6 5 6 5 2 1 2 5 8 9 9 9 9 9 9 10 10 11 13 14 16 17 17 17 18 19 21 20 19 21 24 26 28 29 29 29 31 31 31 31 33 33 31 29 29 29 29 31 33 34 33 31 29 29 29 26
3 1 1 2 2 2 2 2 3 2 1 2 2 1 3 3 4 6 4 3 4 4 5 6 5 4 4 3 4 6 6 7 7 6 5 4 3 0 3 6 8 9 9 9 9 10 12 13 14 15 16 16 16 17 18 18 18 19 19 20 22 24 26 26 27 28 29 29 29 30 32 32 31 30 30 30 30 32 33 34 32 29 28 28 26 23
4 1 2 2 2 2 3 1 0 1 2 5 5 2 2 2 3 4 5 3 3 3 3 5 5 5 6 6 6 6 6 7 4 1 5 6 3 4 5 3 4 4 5 6 8 9 11 12 13 14 16 17 16 15 16 17 18 18 19 20 21 22 24 24 25 26 27 28 30 30 32 32 32 31 31 31 32 34 35 33 30 27 26 25 23 22
4 0 4 2 2 1 3 3 3 4 4 4 5 4 4 2 3 3 6 2 4 4 2 4 4 5 8 9 7 6 7 6 3 4 6 5 3 5 6 6 6 6 7 7 8 11 13 15 16 15 15 15 15 14 15 16 17 18 18 19 20 21 21 22 23 25 27 28 28 29 31 32 33 33 33 32 33 35 33 30 26 24 23 24 23 23
4 4 3 3 3 3 2 2 2 3 2 3 4 6 6 4 1 5 5 3 5 6 2 4 3 1 5 9 8 6 6 6 5 3 3 2 5 6 6 7 7 6 8 11 11 12 13 14 14 12 10 10 11 12 14 15 16 16 15 16 16 16 18 20 22 24 24 23 25 27 29 31 34 35 34 33 33 32 29 26 24 24 24 24 24 24
4 2 2 2 2 4 1 2 1 2 3 3 6 7 7 3 3 6 5 6 3 4 2 5 6 2 1 5 6 6 4 5 6 3 0 4 8 8 6 7 8 9 11 13 13 13 14 13 13 12 9 6 6 9 12 13 12 10 9 10 12 14 16 17 18 19 20 21 23 25 28 31 33 34 33 32 30 27 25 24 24 25 24 24 23 22
4 1 2 2 2 4 2 2 0 2 2 4 9 8 4 1 3 4 4 2 1 2 3 5 8 7 7 7 6 6 5 4 6 7 5 6 8 7 6 6 9 11 12 12 12 12 13 14 14 12 9 6 6 9 10 11 10 8 8 10 12 14 15 15 15 16 19 21 23 24 27 29 30 29 27 25 23 20 18 19 20 21 21 22 21 20
3 3 2 1 2 4 2 2 2 3 2 8 10 6 3 3 4 4 1 3 1 4 7 7 6 8 10 10 8 8 8 7 7 8 7 7 7 7 6 6 7 7 7 9 10 8 9 12 12 11 9 7 7 8 9 10 10 8 9 10 11 12 13 12 13 16 18 21 23 23 25 26 25 23 19 17 20 22 21 19 18 18 20 21 19 18
4 4 2 2 2 2 2 1 1 2 6 9 6 3 3 2 2 1 3 3 3 3 5 6 6 7 10 11 10 9 10 8 7 8 8 8 7 6 6 6 6 6 6 8 8 6 7 10 11 11 10 8 7 7 8 10 10 9 9 9 10 10 11 11 13 15 17 19 21 22 22 22 21 19 17 16 19 23 27 26 21 17 17 18 18 18
4 6 5 3 2 2 2 3 4 3 5 7 4 5 4 5 5 5 5 5 5 5 4 5 6 7 8 11 11 10 9 8 8 8 8 7 6 6 5 4 4 5 5 6 7 6 7 9 10 10 10 8 6 7 8 9 10 10 10 9 9 10 12 12 13 15 17 19 20 21 22 21 21 22 21 19 19 23 27 26 18 13 14 17 18 18
1 5 6 4 4 3 1 2 5 5 6 8 6 5 7 7 6 6 8 8 7 7 6 7 7 7 8 10 11 9 8 8 9 8 7 6 6 6 5 4 4 4 4 4 5 6 7 8 9 10 11 9 7 8 9 9 10 11 11 11 10 11 13 14 16 18 19 20 22 23 23 22 23 23 22 21 22 25 24 19 14 14 15 18 19 19
3 3 3 4 6 4 1 2 6 7 6 7 7 6 8 9 6 6 9 8 6 8 9 9 9 9 10 10 10 9 7 7 8 7 6 5 5 4 4 4 4 4 1 0 3 6 8 9 10 11 12 11 10 10 10 10 11 12 12 11 11 12 14 16 18 20 20 21 22 23 23 23 22 21 19 18 21 23 22 20 19 18 16 17 18 19
3 4 3 2 5 4 4 4 2 6 7 7 5 3 5 7 6 7 8 7 7 9 10 9 9 9 9 9 8 8 7 7 7 6 4 3 2 2 2 1 2 3 3 1 3 6 8 10 11 12 13 13 13 12 11 11 11 11 11 11 12 14 16 17 18 20 20 21 22 22 22 22 22 21 19 16 17 19 21 21 19 17 16 18 20 20
4 3 2 1 4 6 6 7 7 7 6 7 6 4 4 6 7 7 8 8 7 8 9 11 9 8 8 8 8 8 8 7 5 4 4 3 2 3 2 1 1 1 2 3 5 6 8 10 11 12 13 13 14 13 13 13 12 12 12 14 15 17 18 18 18 19 19 19 20 21 22 22 21 20 17 15 14 14 14 14 15 16 18 19 20 21
3 3 2 1 4 6 7 8 8 9 5 2 3 4 4 4 8 9 9 9 8 7 8 10 10 10 10 10 8 8 7 6 6 5 5 4 3 4 3 1 0 1 2 4 5 5 5 6 8 10 12 13 14 15 15 14 14 13 14 15 17 19 20 20 20 19 19 20 20 21 22 21 17 14 12 13 13 12 11 11 12 14 15 16 16 17
2 2 3 1 2 2 6 6 3 4 6 4 2 2 2 4 10 12 11 10 9 8 9 10 11 11 11 9 8 6 5 5 6 7 7 6 6 5 4 4 3 3 2 1 2 3 4 5 8 10 13 15 16 16 16 16 15 16 16 16 17 19 22 23 23 22 22 22 20 20 20 19 15 12 11 12 12 12 12 11 9 9 10 10 11 12
Wind_Direction
148 152 184 185 186 182 181 180 174 168 152 153 155 159 178 193 234 230 277 264 168 172 210 194 174 185 180 184 184 181 182 191 198 196 198 198 196 200 202 209 212 212 218 213 208 208 208 209 210 210 210 211 212 213 212 212 213 216 217 217 218 219 219 220 220 221 222 221 223 227 233 237 238 236 239 243 246 248 246 245 249 249 252 264 266 241
145 182 206 199 192 183 182 186 157 132 133 136 147 162 181 199 233 233 248 258 176 179 222 164 152 205 197 189 185 178 184 197 200 197 200 199 198 201 203 210 214 217 221 212 209 210 209 210 210 209 209 209 209 211 211 212 213 215 217 218 220 220 218 220 220 220 221 221 222 225 228 231 231 230 232 235 239 242 242 243 248 250 252 253 231 208
178 212 215 204 186 160 155 169 144 134 143 132 132 147 183 216 225 222 184 165 173 207 253 148 157 237 221 193 194 189 196 204 202 199 200 196 197 202 205 209 211 214 215 209 209 209 209 209 208 207 207 208 209 210 211 212 213 214 215 217 220 220 219 220 221 221 221 223 223 225 227 227 226 226 228 233 239 241 239 241 244 247 247 233 212 200
194 240 217 185 155 141 132 146 138 129 135 134 138 149 198 222 176 217 192 153 153 180 183 131 112 315 196 186 214 211 211 215 207 207 208 201 203 206 206 206 205 208 210 209 208 207 208 209 207 206 207 208 209 209 209 209 211 212 213 216 217 219 221 221 221 222 223 223 222 222 225 227 225 225 228 232 238 240 239 241 242 243 238 218 204 199
215 253 187 149 152 160 152 145 141 138 182 202 180 163 175 199 195 209 158 138 105 37 111 110 52 312 198 185 218 216 217 226 214 208 213 214 213 214 213 210 206 207 208 206 205 203 204 206 206 206 207 206 206 207 208 208 209 211 213 215 216 218 221 222 222 221 221 220 216 215 216 219 219 221 225 228 232 234 235 237 237 235 226 209 200 202
236 252 141 142 164 165 155 166 168 164 184 251 217 187 180 177 181 153 131 128 111 262 231 126 92 287 233 202 213 200 207 219 212 208 215 216 214 215 214 211 210 210 208 207 206 200 198 202 204 205 205 204 205 208 209 209 210 211 213 214 216 218 220 222 222 221 220 217 214 211 209 208 210 214 219 223 227 229 230 231 228 223 217 205 200 204
229 203 140 149 163 163 165 189 200 168 150 249 228 191 180 160 146 147 144 139 151 214 220 166 189 269 290 230 213 194 206 216 215 217 218 215 213 212 211 210 210 208 207 208 209 202 195 196 199 202 203 203 205 208 208 209 210 211 213 213 215 217 220 222 221 220 219 216 214 214 214 215 216 218 222 227 230 232 234 231 222 216 211 202 201 206
196 182 170 159 151 159 172 199 211 163 142 236 226 170 160 149 152 160 158 167 178 144 133 168 175 274 286 254 207 185 202 222 225 226 222 216 214 212 211 212 209 207 206 204 205 204 198 196 196 199 202 203 205 206 206 207 209 211 212 213 215 217 219 221 221 220 218 216 215 215 217 220 223 226 229 230 231 233 236 229 218 213 207 201 202 206
188 188 190 173 161 178 191 200 187 159 164 235 203 154 150 153 163 165 166 189 170 110 201 223 156 196 263 282 205 176 198 223 228 226 223 217 213 211 211 211 210 209 206 202 202 203 202 200 200 200 201 204 205 204 204 206 208 210 212 213 214 216 218 220 220 219 218 218 217 217 218 221 225 229 231 231 232 232 229 218 209 204 201 201 201 203
222 196 185 169 176 201 207 202 166 162 199 224 154 117 91 103 123 153 171 174 103 126 217 218 181 196 259 278 183 168 203 224 227 227 224 218 212 211 211 211 211 209 207 206 204 202 203 204 203 201 201 203 205 205 205 206 207 208 209 210 213 215 218 219 218 217 217 217 217 217 219 221 224 226 226 227 228 222 213 204 198 196 199 202 200 201
271 233 163 166 185 189 193 199 170 176 188 152 115 90 63 55 64 81 113 102 101 227 240 214 192 195 247 263 192 182 207 214 217 226 226 217 213 212 211 209 208 206 204 204 204 205 205 206 204 201 201 203 203 204 204 204 205 206 207 208 211 215 217 217 217 216 216 216 216 218 219 221 222 222 221 219 215 206 199 196 195 197 199 201 201 202
286 266 209 214 196 157 157 189 196 198 185 136 105 99 107 18 31 39 12 62 134 243 253 218 190 192 238 254 219 215 220 213 210 219 220 213 211 211 208 207 206 204 200 198 201 205 202 201 202 200 202 202 200 200 201 203 204 204 206 207 210 213 215 215 216 216 216 216 217 218 219 221 222 221 220 215 208 202 197 198 199 199 198 199 200 200
266 233 243 269 248 147 145 175 207 260 147 133 115 104 128 262 350 97 270 94 179 240 256 188 159 189 246 249 236 230 235 229 218 219 219 213 209 208 205 204 204 199 197 197 198 200 199 198 197 197 200 200 198 199 200 202 203 204 205 207 209 212 213 215 217 216 217 218 219 219 219 221 223 222 221 216 210 206 203 203 201 198 197 198 198 199
269 271 242 236 267 180 155 164 178 199 159 152 151 138 149 170 170 218 239 359 222 254 289 142 153 204 272 261 239 228 231 230 223 223 224 218 208 205 203 201 200 197 196 198 197 198 200 200 197 195 196 196 198 200 201 201 202 203 205 206 209 213 214 216 217 218 218 220 221 221 221 222 223 222 222 218 213 210 208 207 205 203 200 199 200 203
201 257 223 202 232 202 179 178 164 152 159 179 167 147 161 165 168 209 206 189 214 244 333 104 154 192 217 252 243 228 232 230 227 235 237 227 191 187 194 195 196 200 199 198 198 199 201 200 196 194 194 195 198 200 201 202 202 203 205 207 209 213 214 215 217 218 219 220 221 221 222 223 223 224 223 219 216 214 212 210 209 207 204 203 206 208
192 240 244 231 226 185 188 189 146 128 160 212 149 129 184 185 168 194 190 180 180 156 123 166 204 219 218 286 296 285 283 249 229 240 241 221 172 159 176 192 194 198 200 200 201 202 203 199 195 193 193 196 198 200 201 202 203 204 206 208 211 214 215 216 217 217 218 219 220 221 222 223 223 224 223 218 216 215 215 214 212 210 209 211 213 211
181 250 259 233 232 207 188 177 166 167 179 184 143 176 210 174 148 158 214 171 126 178 244 186 223 271 304 300 293 296 297 269 239 231 227 212 173 165 182 192 193 196 198 200 202 202 200 196 194 194 193 195 198 201 203 204 205 206 207 208 211 214 215 216 217 216 216 217 219 221 222 223 222 222 221 218 216 215 216 216 215 215 215 215 214 212
164 255 267 199 217 239 194 172 200 198 161 137 181 198 172 113 113 124 178 11 66 221 263 194 198 220 160 277 293 273 254 260 255 237 223 193 169 186 196 193 193 196 196 198 201 201 199 195 195 195 195 198 200 202 205 207 207 208 209 210 211 213 215 216 216 214 214 215 217 220 221 221 221 221 219 218 217 217 217 217 217 218 217 215 213 215
164 242 282 209 205 227 156 167 233 242 184 146 180 173 139 155 216 136 172 184 148 214 265 280 243 225 195 223 271 240 229 241 249 240 213 186 189 199 202 198 195 193 194 197 199 199 197 197 196 195 198 201 203 206 208 208 208 209 211 212 212 215 216 215 214 212 214 216 216 219 221 221 220 218 217 216 217 218 219 219 219 219 217 214 214 217
166 209 270 240 203 193 128 174 216 232 229 80 122 150 144 170 178 178 169 167 188 204 225 270 283 254 228 216 211 217 222 228 235 237 218 202 203 204 201 197 192 190 194 194 196 199 198 198 197 197 199 201 203 207 208 207 207 209 211 212 213 216 216 214 213 213 214 215 216 218 219 219 216 215 215 215 216 217 220 221 221 221 219 217 218 221
170 194 238 264 238 182 198 207 205 202 183 137 163 179 180 139 141 189 187 133 154 174 177 204 235 253 246 208 195 213 220 218 219 222 222 214 210 209 201 189 186 189 193 193 196 200 199 197 197 199 202 203 205 207 207 206 208 210 211 212 213 215 214 213 213 213 214 214 214 214 214 214 213 213 215 215 214 215 218 222 226 227 223 221 222 225
188 190 211 233 222 208 235 233 201 186 172 168 187 187 179 169 138 193 245 230 126 166 177 176 212 257 251 196 198 215 216 218 216 210 218 222 216 211 196 184 188 189 190 196 199 199 197 195 195 197 200 201 201 204 205 207 208 209 210 212 213 213 212 213 212 213 213 211 210 210 211 213 211 211 213 212 211 210 210 218 229 231 226 225 227 228
171 154 191 219 226 223 239 240 192 181 176 176 200 193 180 178 162 181 220 235 208 206 146 138 200 264 259 204 204 216 213 225 226 212 220 230 220 205 191 188 191 190 193 198 199 198 195 192 192 193 196 196 199 203 205 206 207 209 211 212 211 211 213 214 213 212 209 206 208 209 210 211 208 206 208 207 205 204 203 208 224 231 229 228 231 229
169 149 183 226 272 266 266 282 253 172 156 187 236 200 176 190 188 185 187 178 193 202 149 147 236 264 272 248 219 227 226 234 233 219 221 227 216 191 188 191 190 193 199 199 197 196 191 187 188 190 193 196 200 204 205 206 209 211 212 212 211 213 214 214 212 209 205 204 208 208 207 207 204 202 204 204 202 201 199 200 210 226 231 230 232 231
202 190 170 196 249 257 266 285 275 238 178 197 228 191 178 182 168 149 103 145 212 214 170 171 226 249 272 314 301 225 214 230 237 230 226 224 211 193 190 192 193 196 200 197 192 189 183 182 185 188 192 196 200 204 205 208 211 212 213 213 212 215 215 212 210 206 202 204 205 204 203 202 200 200 202 202 201 201 201 198 200 215 227 229 232 233
196 190 170 185 206 219 219 223 230 221 195 218 216 187 188 175 162 158 115 160 227 233 167 172 210 247 278 301 283 231 199 218 239 234 229 226 213 198 190 193 197 196 197 193 187 185 183 184 187 188 192 196 201 204 205 208 211 212 214 214 215 216 214 211 208 202 199 201 201 201 200 198 199 200 201 201 201 202 203 199 196 207 222 226 230 234
160 190 189 192 202 211 211 216 214 170 163 210 213 196 196 187 175 167 145 178 201 177 182 212 200 212 255 256 250 244 215 218 232 221 219 222 212 201 196 198 200 196 195 189 180 179 179 182 188 189 193 198 202 205 206 209 211 212 213 216 216 215 212 208 203 198 197 199 200 201 199 197 201 202 201 200 201 202 203 198 194 202 216 221 227 235
115 223 213 200 209 216 214 213 202 170 179 199 201 200 202 194 177 170 187 203 167 146 232 251 195 188 229 228 225 235 225 217 221 213 215 220 211 200 191 187 192 195 191 180 175 180 181 185 189 190 194 199 202 205 208 211 213 213 215 217 216 211 208 205 199 195 197 198 201 202 199 198 201 201 200 200 201 203 203 199 194 200 214 220 223 232
152 221 213 199 221 229 225 219 192 180 201 197 192 202 201 192 180 184 205 201 162 174 231 230 182 193 224 223 218 222 213 206 209 206 207 213 207 189 171 174 191 198 190 181 185 187 185 187 189 189 194 197 199 203 207 211 213 214 217 218 213 207 206 203 196 195 197 198 201 202 199 197 198 197 196 196 199 203 202 198 194 200 216 224 224 230
160 231 208 191 223 236 233 228 195 187 215 218 209 210 198 189 188 195 211 200 182 207 227 198 188 208 219 213 217 224 209 197 194 175 179 196 195 183 177 187 200 201 190 188 192 189 186 189 188 184 185 190 196 201 205 209 212 214 217 216 209 204 204 200 195 195 196 198 200 199 196 197 197 195 193 193 197 200 197 192 194 206 223 229 229 231
146 251 229 169 216 243 235 228 212 198 212 227 233 231 214 196 193 205 219 203 190 228 240 170 186 225 239 218 218 225 141 140 156 173 190 201 192 181 186 198 202 197 192 192 187 178 180 181 175 173 177 190 198 201 205 210 213 215 216 213 207 203 202 199 196 195 197 199 199 196 195 197 197 195 194 193 193 193 189 190 198 213 228 233 232 231
135 246 331 103 193 254 231 218 222 208 207 233 244 242 231 212 200 209 207 184 185 210 205 134 181 235 247 217 198 170 138 160 189 196 196 199 189 185 196 201 196 192 194 190 176 170 176 176 174 177 183 190 194 198 206 210 212 215 214 211 207 204 200 198 197 196 198 199 198 195 196 197 196 195 193 190 188 189 190 195 203 214 227 231 230 231
140 149 337 121 188 261 242 210 209 184 185 244 245 232 227 217 208 213 202 189 191 178 162 182 214 234 228 178 176 190 182 193 208 202 190 191 190 191 196 193 188 193 194 184 175 174 176 174 173 175 174 179 188 200 210 210 211 216 216 212 208 203 198 197 197 197 199 199 198 196 196 197 195 193 191 188 186 187 192 201 208 216 226 230 229 231
67 80 272 176 183 259 255 195 147 155 201 239 239 208 207 207 205 209 208 200 195 177 178 228 240 242 173 167 187 200 203 210 212 198 184 179 176 180 185 183 184 186 181 176 176 173 167 164 167 174 180 190 200 208 213 213 215 219 218 211 206 201 198 196 196 198 199 198 198 197 195 194 192 190 186 184 183 186 194 206 214 219 226 229 228 231
318 337 239 194 180 255 279 101 131 217 229 241 253 217 202 203 195 188 182 197 199 201 223 247 252 238 216 210 204 192 181 143 82 98 147 167 165 168 174 180 177 167 163 169 170 166 166 169 173 182 191 199 205 207 209 213 216 217 215 208 203 200 198 197 196 198 199 199 198 196 192 190 189 184 178 178 184 191 201 212 218 221 225 228 229 234
251 249 223 172 178 234 80 132 191 237 252 241 247 228 110 155 155 139 113 255 227 209 203 222 244 237 223 231 207 135 129 108 65 42 30 139 158 169 174 175 169 164 170 175 175 178 180 179 179 184 191 196 199 201 206 211 211 209 207 204 201 200 199 196 196 197 198 198 196 192 189 187 183 177 170 176 192 203 209 215 219 222 224 228 232 239
230 189 285 266 221 167 164 203 229 278 313 221 227 84 91 115 149 147 145 195 224 213 196 214 236 207 172 171 148 135 129 106 70 28 6 9 3 154 168 169 166 168 174 173 171 173 174 175 176 176 179 182 188 195 200 202 201 199 198 198 197 198 197 196 197 198 197 197 194 190 188 184 180 176 174 182 199 209 212 216 220 223 225 228 235 243
257 143 152 231 267 103 115 120 105 135 203 220 241 264 94 113 198 178 126 136 242 252 183 189 198 168 140 127 136 143 117 95 96 333 336 349 11 67 72 87 117 129 141 141 140 141 142 149 156 162 168 169 172 184 189 188 189 188 189 193 194 195 195 197 199 198 196 197 194 189 186 182 180 178 178 186 201 209 213 218 221 224 227 231 241 253
277 22 116 113 345 353 139 146 178 185 203 235 261 306 11 19 223 155 101 128 269 312 55 149 181 178 149 135 131 122 105 114 178 261 319 342 32 81 84 79 70 67 74 86 110 129 135 141 147 152 158 157 158 170 179 179 181 183 187 194 194 193 195 197 200 200 198 196 192 188 185 183 182 182 184 193 205 211 214 218 222 226 230 235 246 259
339 360 52 50 335 279 175 149 207 209 216 282 306 328 329 301 196 100 106 198 268 316 336 132 127 217 161 137 118 97 108 152 189 257 308 28 72 70 80 86 81 80 71 64 76 103 116 122 125 123 125 135 148 164 173 175 178 181 187 194 193 193 197 200 204 204 199 192 188 186 185 185 186 188 193 201 209 212 213 216 222 226 230 237 248 257
327 341 46 68 310 289 230 153 221 255 248 287 317 318 306 302 93 113 180 215 252 315 272 123 104 81 106 111 109 108 124 156 153 142 96 91 82 70 72 84 81 77 72 69 76 90 94 90 86 82 82 98 136 157 167 169 167 168 178 188 192 197 203 205 205 202 195 189 187 187 189 190 193 196 202 206 209 210 213 217 223 227 231 242 253 256
255 232 51 56 328 299 262 151 143 247 240 323 328 316 314 100 150 194 223 232 160 138 122 96 97 101 84 70 78 94 95 97 107 107 91 81 85 79 70 78 78 72 71 77 82 89 89 81 74 73 75 91 131 152 161 159 153 156 173 187 197 203 206 206 203 197 192 190 189 190 193 196 199 203 207 206 204 207 214 221 230 239 246 254 258 255
197 127 59 36 254 282 298 75 97 179 265 333 336 335 26 91 189 218 353 16 18 121 103 83 80 93 93 88 84 87 87 75 73 84 82 74 78 75 61 62 70 70 74 80 80 83 90 85 79 81 87 101 126 142 154 156 154 162 179 190 201 203 202 203 199 193 190 189 190 192 196 200 202 203 203 200 200 206 214 221 237 256 263 260 256 250
167 139 150 195 207 286 335 353 205 223 292 321 348 48 32 31 171 156 54 43 23 51 82 83 75 80 95 101 95 86 84 74 60 64 66 59 58 61 55 50 56 59 62 72 79 89 94 91 86 84 85 94 116 134 154 163 161 165 179 190 195 194 194 196 193 189 186 186 188 192 197 201 200 197 197 195 198 210 218 221 232 252 258 253 248 241
193 164 160 165 178 195 220 249 261 283 315 327 17 79 59 46 58 57 67 75 51 19 23 67 74 71 83 93 90 81 78 76 67 62 59 51 43 42 43 48 64 75 73 78 88 89 83 86 89 88 88 96 119 139 156 168 170 169 174 181 186 189 189 186 182 180 181 182 185 189 193 197 196 197 200 197 197 211 221 222 229 245 248 243 238 232
266 141 138 137 157 169 172 325 333 353 356 349 3 60 76 65 52 53 64 65 48 32 32 47 57 54 59 75 81 74 67 71 72 63 55 52 40 25 19 16 25 55 77 92 101 100 97 100 105 106 107 114 134 150 158 171 178 176 175 181 189 192 188 182 177 177 179 181 185 186 185 186 188 193 199 199 200 210 219 227 242 257 254 245 236 230
29 67 85 140 151 144 129 335 346 354 355 350 356 31 63 65 61 68 73 69 58 57 50 39 38 42 46 59 71 73 67 68 69 59 43 45 40 17 8 357 341 345 357 124 131 132 132 125 121 124 127 134 149 158 159 168 180 184 185 188 192 192 188 183 178 176 176 178 181 181 181 181 183 189 196 202 207 216 227 239 250 256 254 245 236 230
356 6 3 164 152 120 134 163 90 25 3 345 342 14 57 65 57 53 67 72 64 65 65 53 42 41 40 41 49 57 58 57 68 73 58 41 19 339 346 341 306 311 307 261 167 151 145 135 135 144 147 149 156 160 162 169 179 186 190 192 194 191 185 180 176 174 174 175 178 181 184 187 191 195 200 203 208 217 226 235 244 250 248 244 238 229
311 316 331 154 123 90 104 146 131 86 26 334 324 347 36 76 78 62 66 71 63 64 72 68 62 58 53 41 32 35 34 19 20 51 59 33 345 314 307 242 218 257 241 210 183 169 161 151 151 157 157 156 160 163 166 173 180 188 194 195 193 185 176 173 174 173 174 178 183 188 192 195 196 196 196 196 200 206 214 224 234 238 237 236 233 228
339 332 353 102 144 139 148 167 155 123 120 218 267 320 345 81 96 84 74 72 67 67 73 74 73 68 60 52 44 45 38 10 2 28 48 32 352 326 327 344 98 147 168 174 167 162 161 157 158 160 161 165 169 169 171 176 181 188 194 193 189 183 177 175 174 174 179 187 192 194 195 195 194 194 194 194 194 193 192 200 213 218 219 222 225 225
348 320 329 312 213 159 137 150 149 109 119 135 105 10 350 74 84 79 74 72 65 58 61 67 66 63 59 55 51 56 55 30 20 35 46 36 12 356 357 5 9 8 2 359 158 160 167 171 171 170 169 173 176 174 176 180 182 182 183 180 179 181 180 175 173 176 184 190 191 191 192 192 193 193 193 190 188 186 182 177 176 185 197 206 213 216
Height
738 751 758 758 758 756 754 753 753 758 760 764 770 774 777 783 783 775 771 764 761 776 783 780 784 786 785 784 781 780 782 785 787 787 788 788 789 790 791 791 791 790 787 786 788 790 791 793 795 797 799 801 803 804 806 808 809 811 812 814 815 817 819 821 822 824 825 826 828 829 830 831 832 833 834 835 835 835 836 836 836 837 838 838 838 839
740 755 757 750 749 747 748 749 751 759 761 762 768 773 776 780 780 773 772 768 763 776 784 780 784 787 785 784 781 780 783 783 782 784 785 785 787 787 788 789 788 787 786 786 788 788 790 791 793 795 797 799 800 801 804 805 807 809 811 812 814 815 817 818 820 822 823 824 826 827 828 829 831 832 832 833 833 834 834 835 835 836 837 838 838 838
751 755 749 743 744 745 749 750 753 759 761 764 768 773 777 776 776 772 768 768 768 777 785 784 787 789 786 784 782 780 779 777 775 777 780 782 785 786 785 785 785 787 787 787 787 787 788 789 790 793 794 796 797 799 801 802 805 807 808 810 812 813 815 816 818 819 821 822 824 826 827 828 830 830 831 832 832 833 833 834 834 835 836 836 837 837
758 752 742 741 743 747 751 752 754 758 762 766 768 773 777 773 776 777 772 772 771 775 783 785 789 790 786 785 784 779 776 776 775 776 777 779 781 781 779 780 782 784 786 785 785 785 785 787 788 789 791 793 795 797 798 800 802 804 806 807 809 811 813 814 816 817 819 821 823 825 826 827 828 829 830 830 831 831 832 832 833 833 834 835 835 836
752 742 735 739 743 745 751 754 755 760 765 767 766 769 771 769 770 772 772 773 773 778 780 784 796 794 787 789 786 779 778 778 776 776 778 777 776 776 777 778 779 780 781 782 783 782 783 784 785 786 788 790 792 794 795 797 799 800 802 804 806 808 810 812 813 815 818 820 822 823 825 826 827 827 828 828 829 830 830 831 831 832 832 833 834 835
745 737 734 740 744 745 750 756 755 757 765 767 762 760 760 761 764 767 771 775 787 794 781 783 806 802 787 789 786 780 781 779 777 777 776 776 775 776 778 777 776 776 776 778 778 779 780 781 783 784 786 787 788 790 791 794 796 797 800 802 804 806 807 809 811 813 816 817 819 821 822 823 824 825 825 826 827 828 828 829 829 830 831 832 833 833
740 734 734 739 743 746 751 754 752 752 765 770 757 749 752 757 762 769 773 778 793 798 778 776 799 803 792 787 782 779 782 780 777 776 773 773 773 773 774 773 772 773 773 774 774 775 777 778 780 781 782 784 785 786 789 791 793 795 797 799 801 803 805 807 809 811 814 815 817 818 819 821 822 823 823 824 826 826 827 827 828 829 829 831 832 832
734 734 738 740 743 748 753 754 749 748 761 765 748 743 752 757 761 767 771 776 781 782 780 778 788 800 795 781 776 777 782 783 778 775 771 768 768 768 768 768 767 768 768 769 771 772 773 774 775 777 778 780 781 784 787 789 791 793 795 797 799 801 803 804 807 809 811 813 814 816 817 819 819 821 822 823 824 825 825 826 827 828 829 830 831 832
729 734 738 740 745 750 748 745 742 745 754 751 740 742 748 753 758 762 768 774 773 780 796 792 787 802 798 777 775 778 781 784 777 770 766 762 762 762 762 763 762 762 762 763 766 767 768 769 771 773 775 778 780 782 784 786 788 790 793 795 797 799 800 802 804 806 808 810 812 814 815 817 818 819 821 822 823 823 824 825 826 827 828 829 830 832
726 727 728 734 743 745 739 735 735 741 746 740 737 743 747 752 758 762 769 774 777 788 801 795 788 801 798 778 779 785 783 779 768 760 756 754 756 756 756 757 757 758 759 759 761 762 763 765 767 771 774 776 778 780 782 784 786 788 790 793 794 796 798 800 802 804 806 808 810 812 813 814 816 818 819 820 821 822 823 824 825 826 827 829 830 831
722 718 721 726 731 731 729 732 732 733 736 734 739 746 751 759 762 767 772 773 789 801 794 786 783 791 794 780 778 779 766 757 754 753 751 749 751 751 749 751 751 753 755 756 758 759 760 763 766 769 771 773 776 778 781 782 784 786 788 790 792 794 796 797 800 802 803 806 807 809 810 812 814 815 817 818 819 820 821 823 824 825 827 828 829 831
727 725 725 720 717 719 725 732 733 730 730 734 742 749 758 769 769 777 783 781 802 809 785 775 779 790 796 779 766 760 744 737 742 743 743 743 743 741 742 744 745 747 750 753 756 757 759 762 764 767 768 770 773 775 778 779 781 783 785 787 789 791 793 795 797 799 801 803 805 806 808 810 811 813 814 815 817 818 820 822 823 824 826 827 829 830
734 729 725 718 713 714 724 737 740 737 737 740 748 755 769 784 785 792 798 798 807 799 774 771 781 792 791 766 751 752 742 735 734 730 729 730 731 734 736 738 740 743 747 749 752 753 756 757 759 762 764 767 770 772 774 776 778 780 782 784 786 788 790 792 794 797 798 800 802 804 806 807 809 810 811 813 814 816 818 820 821 822 824 826 827 829
743 734 724 723 720 711 718 735 745 746 746 747 750 758 773 789 799 805 809 810 806 787 772 774 781 790 784 755 739 740 734 728 725 720 718 719 724 729 731 734 737 740 742 744 747 749 750 751 753 756 760 763 766 768 771 773 775 778 780 782 784 785 788 790 792 794 796 798 800 801 803 805 806 808 809 811 812 814 816 818 819 821 822 824 825 826
753 748 729 725 723 713 715 723 730 736 743 745 741 747 761 771 784 794 797 797 791 782 783 785 784 786 775 746 727 722 718 718 719 717 716 719 723 726 729 733 736 738 739 740 742 743 744 745 748 752 756 759 762 765 768 770 772 775 776 778 780 782 784 786 789 791 793 796 798 799 801 802 804 805 807 809 811 813 815 817 818 819 820 822 823 824
749 747 723 715 714 710 715 715 713 725 740 743 735 743 754 751 755 771 778 776 774 780 788 787 778 768 753 732 718 718 717 716 717 718 719 722 722 724 729 731 732 735 736 737 738 739 739 742 745 749 752 755 759 762 764 767 769 770 772 774 776 778 781 783 785 788 791 793 796 797 798 800 802 803 805 808 810 812 814 816 817 818 819 820 822 823
745 740 717 711 713 708 710 710 708 718 733 741 741 745 745 736 738 759 775 776 776 782 783 780 771 758 750 736 719 718 719 715 716 718 718 720 721 723 726 726 727 729 730 732 733 734 736 739 742 745 748 752 755 758 760 761 763 765 768 771 773 776 778 780 782 785 788 791 793 794 796 797 799 801 804 807 809 812 813 815 816 817 818 819 821 822
732 735 718 711 717 709 702 705 706 705 715 733 742 737 733 738 740 750 770 782 788 788 780 777 770 760 763 753 726 720 723 716 715 715 715 720 722 722 721 720 721 721 723 726 727 730 733 735 738 741 744 747 749 752 754 756 759 762 765 768 770 773 774 776 778 782 785 787 789 791 793 795 797 800 803 806 808 811 812 813 814 815 817 818 820 821
721 734 723 709 713 708 700 710 718 709 705 716 723 720 728 749 755 754 765 778 787 790 780 775 773 764 761 750 728 724 724 714 711 711 714 718 717 717 717 716 716 717 720 723 725 728 730 731 734 737 740 743 745 748 751 754 758 761 763 765 767 769 771 774 778 780 782 784 786 788 790 792 796 798 802 804 806 808 809 811 813 814 816 817 819 820
715 731 730 712 708 709 707 716 725 720 713 712 716 720 725 736 745 748 754 758 768 782 781 775 777 766 748 733 720 716 715 711 708 709 712 713 709 709 710 710 713 716 717 720 722 724 725 727 730 732 735 738 741 744 747 752 756 757 759 762 764 767 769 773 776 777 779 781 783 785 787 790 793 796 799 801 803 806 808 810 812 813 815 816 817 818
710 725 731 718 710 715 717 715 714 716 721 722 726 731 730 730 735 740 746 747 750 766 774 773 774 756 728 717 712 704 703 704 703 703 705 705 702 701 703 706 710 712 713 715 717 718 720 722 725 728 732 735 738 743 747 750 753 754 757 759 761 763 767 769 771 773 775 777 779 782 784 787 790 793 796 798 800 803 806 810 812 813 814 815 816 817
709 719 726 722 717 719 714 703 699 702 709 716 722 727 727 728 735 745 754 752 744 751 758 760 763 742 711 705 704 696 697 699 698 698 698 698 697 697 699 702 704 706 708 710 710 712 715 718 722 726 730 734 738 741 744 745 748 750 752 754 755 759 762 764 766 768 771 774 776 778 779 781 785 789 793 795 798 800 803 807 811 812 813 814 815 816
697 708 720 721 715 711 703 694 697 697 696 703 709 713 716 720 728 741 753 750 743 750 752 751 755 732 701 699 701 696 698 699 699 699 696 695 695 696 698 699 700 702 703 704 705 708 711 714 718 723 726 730 733 735 738 740 742 744 746 748 751 755 757 760 763 765 769 772 772 772 774 777 781 786 789 791 793 796 798 800 806 809 811 812 814 814
693 705 716 720 712 703 697 693 695 695 697 705 705 704 709 713 714 721 729 732 736 745 747 752 758 731 699 699 705 701 701 701 700 699 695 694 694 695 697 697 698 700 699 701 703 705 709 712 716 720 723 727 729 731 734 736 738 740 742 745 749 750 753 757 761 764 767 768 767 768 772 776 779 782 784 785 788 791 792 793 798 805 808 810 811 812
699 707 713 724 728 722 715 711 706 702 702 706 703 701 703 706 709 715 721 727 733 736 735 744 751 728 700 700 705 704 704 701 698 697 694 694 694 694 695 695 696 698 699 701 703 705 709 711 714 717 720 723 725 727 730 732 734 737 739 743 745 747 750 755 759 762 763 763 765 767 771 774 777 778 779 780 783 787 789 789 793 800 804 807 809 810
692 701 704 720 737 740 735 726 715 708 705 703 700 699 700 702 707 714 722 731 736 735 733 733 732 718 701 699 700 701 702 698 695 697 695 693 692 692 693 694 694 696 698 700 702 704 707 709 711 714 716 719 722 724 726 728 731 733 736 739 741 744 749 753 756 758 759 761 763 765 769 772 773 773 774 777 780 784 787 789 791 796 801 803 805 807
687 694 693 702 713 717 716 710 702 699 702 703 699 697 698 699 701 707 719 728 728 732 734 723 714 711 704 698 696 696 697 694 692 695 695 690 689 689 690 690 691 693 696 698 701 703 705 708 710 712 714 716 718 720 723 725 727 730 733 736 738 743 747 750 752 754 756 757 759 761 764 765 766 767 769 773 776 780 783 786 787 791 795 799 801 804
687 693 692 692 693 692 690 690 692 693 693 695 696 694 694 696 699 707 716 716 716 728 733 717 709 711 703 693 690 689 691 693 691 692 691 687 685 685 687 689 691 693 696 698 701 703 704 706 708 710 711 713 716 718 721 723 726 728 730 733 736 741 744 745 748 750 751 752 753 755 758 760 761 763 766 770 773 776 780 781 783 787 793 797 798 800
684 690 688 690 691 685 682 684 689 690 687 687 689 690 691 694 700 705 707 705 707 716 716 707 707 708 696 687 684 681 681 682 682 682 683 682 683 684 686 689 691 692 695 697 699 700 702 704 706 708 709 711 714 717 719 721 724 726 728 731 735 738 739 741 743 745 746 747 749 751 754 757 759 761 765 769 772 776 779 781 785 790 795 796 795 796
680 685 682 685 688 684 681 684 687 689 689 687 685 685 687 691 696 697 697 698 700 700 695 695 702 698 685 678 676 673 675 676 677 679 681 681 682 684 686 688 688 690 692 694 696 698 700 702 704 706 708 710 713 715 717 719 721 724 726 729 733 735 736 738 740 741 743 744 745 749 752 754 756 759 762 765 770 776 780 785 790 795 796 796 794 793
681 687 683 684 689 687 680 681 685 688 690 689 686 684 684 689 695 696 695 697 701 700 693 696 705 698 680 672 671 671 675 678 679 680 679 678 680 682 684 685 685 688 690 691 694 696 699 701 703 705 707 709 711 713 715 717 719 722 725 728 731 732 734 736 737 738 739 740 743 746 749 750 752 755 758 761 767 774 779 783 786 790 792 793 792 791
680 687 684 686 697 692 678 679 684 684 688 693 690 686 686 689 692 691 690 692 695 697 698 704 708 695 676 670 673 673 674 677 678 677 677 678 679 681 682 682 683 686 688 690 692 695 697 699 701 703 705 706 709 712 714 716 719 721 723 725 727 729 731 733 733 735 736 737 740 742 744 746 749 753 757 760 764 769 773 776 777 780 785 786 786 787
680 684 683 690 700 693 679 678 680 685 700 704 690 680 682 684 685 684 683 684 684 687 695 699 693 679 670 670 674 674 674 675 674 673 673 674 676 678 679 680 683 684 686 688 690 692 694 696 697 700 702 704 707 709 711 713 716 717 718 721 723 725 728 729 730 732 733 734 737 738 740 744 747 752 756 758 760 763 768 772 773 775 779 781 782 784
681 682 686 692 696 690 681 678 683 698 711 698 674 666 671 674 677 679 678 677 678 680 682 681 676 672 671 671 669 669 670 669 666 666 666 667 671 676 677 678 680 682 684 686 688 689 692 693 695 697 699 701 703 705 707 710 711 713 715 718 721 723 725 727 728 729 731 732 734 736 739 743 747 752 755 756 758 762 766 770 771 772 775 777 779 781
685 685 690 693 692 691 686 686 700 711 699 676 665 664 664 663 665 671 675 675 676 678 676 672 671 671 670 668 664 664 666 666 665 667 667 667 668 671 674 676 678 680 683 685 686 688 690 690 692 694 696 698 700 702 705 707 709 711 714 716 719 720 722 724 726 728 729 731 733 735 739 742 747 751 754 757 760 763 766 769 769 770 772 775 777 779
685 686 689 690 692 694 692 694 703 699 679 666 666 664 662 664 666 671 679 680 676 677 676 670 668 669 670 668 665 665 666 666 668 670 670 670 670 670 672 674 676 677 679 681 682 684 685 686 688 691 693 696 699 701 703 705 707 710 712 714 717 719 720 723 725 726 728 730 732 735 739 742 746 750 753 758 761 763 764 766 767 769 771 774 776 778
683 684 686 688 691 694 696 695 691 686 680 675 669 664 664 669 670 671 678 680 675 676 676 671 668 670 670 668 667 667 665 666 672 674 672 671 671 670 671 672 672 673 674 677 679 681 682 684 686 688 692 694 697 699 701 703 706 708 711 713 715 717 719 721 723 724 726 729 732 735 738 741 745 748 751 755 759 760 761 763 765 768 771 773 775 776
682 681 683 690 694 695 697 696 693 695 693 679 667 664 664 667 669 668 673 677 674 672 672 671 670 669 667 668 670 667 664 672 681 680 674 673 671 669 672 673 673 674 675 677 680 681 682 684 686 688 691 693 695 698 700 702 705 707 710 712 714 716 718 719 721 723 726 728 731 734 737 740 743 746 749 752 755 756 758 761 765 768 770 772 773 774
684 682 682 687 696 699 695 692 694 694 686 672 666 664 664 667 665 663 671 678 671 667 669 670 671 670 665 666 668 665 668 681 688 682 676 676 673 670 673 675 675 677 679 681 682 683 684 685 686 689 691 692 695 698 700 702 704 706 709 711 713 716 717 719 721 723 725 727 730 733 737 739 742 744 747 750 752 754 757 761 764 767 768 770 771 772
684 684 685 688 698 705 699 692 691 686 676 670 669 666 664 663 659 666 685 685 670 666 668 667 669 671 666 662 662 665 673 681 684 681 678 677 674 672 673 675 677 679 681 682 684 685 686 687 688 690 693 695 697 699 701 703 704 706 709 711 714 716 718 720 721 723 726 729 731 734 736 739 741 743 745 747 750 754 757 760 762 764 765 766 768 768
697 693 696 698 700 704 699 693 691 685 675 670 669 666 662 660 661 675 687 678 667 668 668 663 665 669 666 662 660 665 672 674 675 678 678 675 675 675 675 676 678 679 680 682 684 686 687 688 691 693 696 698 700 702 703 704 706 708 711 712 715 717 719 721 723 725 727 730 732 734 736 738 740 742 744 746 751 755 757 758 759 760 761 763 764 765
705 697 700 703 704 708 703 694 692 686 674 669 669 663 658 662 672 678 675 668 668 670 667 664 665 664 665 667 666 668 674 674 673 676 677 676 677 678 679 679 679 681 683 684 686 687 688 690 693 696 699 701 702 703 704 706 708 710 712 713 715 717 719 722 723 725 727 729 731 733 735 737 739 742 745 748 751 754 755 755 757 759 760 761 762 763
695 697 706 708 709 712 703 691 691 689 678 670 667 663 663 670 676 675 671 671 672 669 666 668 667 663 665 671 672 673 676 677 677 677 678 679 679 680 681 681 681 684 685 686 688 689 690 692 696 698 701 702 702 703 705 707 709 711 712 714 716 718 719 721 723 725 727 729 731 733 735 737 740 742 745 747 749 750 750 751 755 757 759 760 761 761
687 697 711 710 707 708 702 694 694 692 682 674 670 669 673 674 672 671 674 675 673 671 669 669 667 666 666 669 673 674 675 679 680 679 680 682 682 683 684 684 685 687 688 689 690 692 693 695 697 699 701 702 703 704 706 707 710 712 714 716 717 718 719 720 722 725 727 729 731 733 735 737 739 742 744 745 747 748 748 749 752 755 757 759 760 761
677 681 692 700 703 705 703 699 694 687 682 678 673 673 676 674 671 672 674 675 675 675 672 670 671 670 667 667 671 673 675 678 680 680 682 685 685 686 688 688 689 690 691 692 693 694 695 696 697 699 702 703 704 705 707 708 711 713 715 716 716 717 718 720 722 724 726 728 730 732 734 736 738 739 741 743 745 747 748 748 750 752 754 756 757 758
674 672 677 689 697 697 694 693 690 686 684 681 676 673 674 675 676 675 675 677 679 678 676 676 676 674 671 670 672 676 679 680 680 682 685 686 687 689 691 691 691 692 692 693 693 694 695 696 698 701 702 704 706 706 708 709 712 713 715 715 715 716 717 719 721 723 725 727 728 730 732 733 735 737 739 741 743 745 746 748 749 750 751 752 753 755
677 674 676 684 691 692 693 695 694 691 688 686 684 679 676 678 680 679 678 680 681 679 679 680 680 680 679 677 678 681 683 683 683 686 687 688 690 692 692 693 694 694 694 695 695 696 697 697 700 702 703 705 707 707 708 710 711 712 713 714 715 716 717 719 721 722 724 726 727 729 731 732 734 736 737 739 740 742 745 746 747 747 748 750 751 753
684 681 682 685 687 687 690 694 695 694 691 691 691 688 683 683 684 681 680 682 683 682 682 682 684 686 685 685 687 688 687 687 687 688 689 690 692 693 694 695 696 696 697 698 698 699 699 699 701 703 704 705 706 706 708 709 710 711 712 713 715 716 718 719 721 722 724 725 727 728 730 731 732 733 734 736 737 739 741 742 744 746 747 748 749 751
689 687 686 688 691 691 693 695 696 697 700 699 695 691 687 684 684 685 685 686 688 688 686 685 687 689 689 690 692 693 694 695 692 690 691 692 692 693 694 695 695 696 699 700 700 700 700 700 701 701 702 703 704 705 707 708 709 711 711 713 714 716 717 719 721 722 723 724 725 727 728 729 730 730 731 732 734 736 737 739 742 744 745 746 747 748
694 692 688 690 695 693 691 691 690 692 701 704 698 694 692 687 685 688 690 690 692 692 690 690 690 690 690 692 695 699 702 701 698 695 695 696 695 695 695 695 695 697 698 699 699 698 698 699 699 700 701 702 703 705 707 708 709 710 711 712 714 715 717 718 719 720 722 722 723 724 725 726 728 729 730 731 732 734 736 738 741 742 743 744 745 747
699 697 693 694 695 690 685 686 685 686 693 698 696 695 693 688 686 689 691 692 694 693 692 692 693 693 694 696 700 703 704 702 700 698 697 698 698 697 695 695 695 696 697 697 696 696 697 698 699 700 701 702 703 705 706 707 709 710 710 712 713 714 715 716 717 718 719 719 721 722 722 724 726 728 729 731 732 733 735 737 739 740 742 743 744 745